Stations météo

réclame
Mon MeteoGroup
Hallhåxåsen, Suède (2236): Température de l'air & dewpoint: 12.01.2019 12:00:00 - 18.01.2019 12:00:00 (CET)Hallhåxåsen, Suède (2236): Vitesse du vent & gusts: 12.01.2019 12:00:00 - 18.01.2019 12:00:00 (CET)Hallhåxåsen, Suède (2236): Direction du vent: 12.01.2019 12:00:00 - 18.01.2019 12:00:00 (CET)Hallhåxåsen, Suède (2236): reduced air pressure: 12.01.2019 12:00:00 - 18.01.2019 12:00:00 (CET)Hallhåxåsen, Suède (2236): visibility: 12.01.2019 12:00:00 - 18.01.2019 12:00:00 (CET)Hallhåxåsen, Suède (2236): Quantités de précipitations: 12.01.2019 12:00:00 - 18.01.2019 12:00:00 (CET)
Date & Time tt [°C] td [°C] ff [km/h] ff [knt] fx [km/h] fx [knt] dd ppp [hPa] vv [km] rr [mm]
18.01.2019 12:00:00 -6,1 -7,8 3 2 16 9 SW 999,3 47 0,0
18.01.2019 11:00:00 -6,9 -8,6 7 4 14 8 WNW 998,8 41 0,0
18.01.2019 10:00:00 -8,5 -9,6 0 0 9 5 N 998,1 50 0,0
18.01.2019 09:00:00 -8,7 -10,0 3 1 9 5 WSW 997,3 50 0,0
18.01.2019 08:00:00 -9,1 -10,3 4 2 7 4 W 996,6 50 0,0
18.01.2019 07:00:00 -8,8 -10,0 4 2 9 5 W 995,8 44 0,0
18.01.2019 06:00:00 -7,5 -8,6 3 1 9 5 W 995,5 50 0,0
18.01.2019 05:00:00 - - - - 12 6 - - - -
18.01.2019 04:00:00 -6,6 -7,7 6 3 15 8 WNW 994,5 50 0,0
18.01.2019 03:00:00 -6,3 -7,2 5 3 15 8 WNW 994,2 50 0,0
18.01.2019 02:00:00 -6,6 -7,5 5 3 11 6 W 993,8 35 -
18.01.2019 01:00:00 -7,1 -8,0 3 2 8 4 W 994,0 50 0,0
18.01.2019 00:00:00 -8,5 -9,6 3 2 6 3 W 994,0 50 0,0
17.01.2019 23:00:00 -9,5 -10,7 3 1 8 4 W 993,7 50 0,0
17.01.2019 22:00:00 -9,2 -10,4 2 1 8 4 W 993,7 50 0,0
17.01.2019 21:00:00 -9,9 -11,1 3 1 7 4 W 993,4 50 0,0
17.01.2019 20:00:00 -11,7 -13,0 3 1 5 3 WSW 993,0 50 0,0
17.01.2019 19:00:00 -13,0 -14,6 0 0 4 2 N 992,7 50 0,0
17.01.2019 18:00:00 -10,9 -12,2 0 0 4 2 N 992,4 50 0,0
17.01.2019 17:00:00 -12,4 -13,8 0 0 4 2 N 992,2 50 0,0
17.01.2019 16:00:00 -12,2 -13,6 3 2 4 2 W 991,9 50 0,0
17.01.2019 15:00:00 -12,1 -13,5 0 0 4 2 N 991,4 50 0,0
17.01.2019 14:00:00 -10,5 -11,7 0 0 4 2 N 990,9 50 0,0
17.01.2019 13:00:00 -11,2 -12,5 2 1 6 3 WSW 991,2 50 0,0
17.01.2019 12:00:00 -11,5 -12,9 3 2 6 3 W 991,0 50 0,0
17.01.2019 11:00:00 -12,6 -14,2 3 2 5 3 W 991,2 50 0,0
17.01.2019 10:00:00 -12,8 -14,4 3 1 4 2 WSW 991,3 50 0,0
17.01.2019 09:00:00 -12,0 -13,4 0 0 3 1 N 991,3 13 0,0
17.01.2019 08:00:00 -11,3 -12,7 0 0 3 1 N 991,0 3,6 -
17.01.2019 07:00:00 -10,8 -12,1 0 0 4 2 N 990,6 2,6 0,1
17.01.2019 06:00:00 -10,6 -11,9 0 0 5 3 N 990,2 2,9 0,3
17.01.2019 05:00:00 -11,1 -12,4 0 0 8 4 N 990,0 2,2 0,3
17.01.2019 04:00:00 -11,2 -12,5 2 1 8 4 NE 989,6 2,3 0,3
17.01.2019 03:00:00 -11,5 -12,9 4 2 7 4 NNE 989,1 1,9 0,5
17.01.2019 02:00:00 -11,8 -13,2 3 2 7 4 NNE 988,7 1,4 0,3
17.01.2019 01:00:00 -12,3 -13,7 3 1 8 4 NNE 988,7 1,9 0,5
17.01.2019 00:00:00 -12,9 -14,4 4 2 7 4 NNE 988,7 1,4 0,7
16.01.2019 23:00:00 -13,3 -14,9 4 2 7 4 NNE 988,9 1,2 0,5
16.01.2019 22:00:00 -13,8 -15,5 4 2 8 5 NNE 989,0 1,8 0,4
16.01.2019 21:00:00 -14,0 -15,7 4 2 7 4 NE 989,2 1,8 0,4
16.01.2019 20:00:00 -14,2 -15,9 4 2 7 4 NE 989,3 1,2 0,4
16.01.2019 19:00:00 -14,5 -16,2 3 2 5 3 NE 989,8 1,4 0,2
16.01.2019 18:00:00 -15,1 -16,8 3 1 5 3 NE 990,1 38 -
16.01.2019 17:00:00 -15,6 -17,4 3 2 6 3 NE 990,4 28 0,0
16.01.2019 16:00:00 -16,0 -17,8 3 2 6 3 NE 990,7 17 0,0
16.01.2019 15:00:00 -16,4 -18,2 0 0 5 3 N 991,3 42 0,0
16.01.2019 14:00:00 -16,5 -18,3 2 1 5 3 NE 992,1 32 0,0
16.01.2019 13:00:00 -17,2 -19,0 0 0 4 2 N 992,8 7 0,0
16.01.2019 12:00:00 -17,0 -18,8 0 0 2 1 N 993,4 42 0,0
16.01.2019 11:00:00 -15,9 -17,8 0 0 2 1 N 994,0 30 0,0
16.01.2019 10:00:00 -16,6 -18,1 0 0 2 1 N 994,5 37 0,0
16.01.2019 09:00:00 -17,7 -19,5 0 0 4 2 N 994,8 33 0,0
16.01.2019 08:00:00 -17,6 -19,5 0 0 6 3 N 995,0 50 0,0
16.01.2019 07:00:00 -16,5 -18,2 2 1 7 4 WSW 995,3 50 0,0
16.01.2019 06:00:00 -15,8 -17,6 4 2 9 5 SW 995,6 50 0,0
16.01.2019 05:00:00 -13,2 -14,6 4 2 9 5 W 995,3 50 0,0
16.01.2019 04:00:00 -13,2 -14,6 4 2 7 4 WSW 995,5 50 0,0
16.01.2019 03:00:00 -12,8 -14,0 4 2 8 4 W 995,7 50 0,0
16.01.2019 02:00:00 -12,5 -13,7 5 3 8 4 WSW 995,8 50 0,0
16.01.2019 01:00:00 -10,8 -11,4 4 2 7 4 W 995,7 50 0,0
16.01.2019 00:00:00 -10,5 -11,7 3 2 9 5 W 995,5 50 0,0
15.01.2019 23:00:00 -9,8 -10,9 5 3 9 5 WNW 995,2 50 0,0
15.01.2019 22:00:00 -10,9 -12,2 3 2 14 8 WSW 994,8 50 0,0
15.01.2019 21:00:00 -10,6 -12,2 4 2 14 8 NW 994,3 50 0,0
15.01.2019 20:00:00 -9,9 -11,4 2 1 18 10 WSW 993,7 50 0,0
15.01.2019 19:00:00 -6,7 -9,6 9 5 18 10 NNW 993,0 50 0,0
15.01.2019 18:00:00 -8,1 -9,6 5 3 11 6 NW 993,2 50 0,0
15.01.2019 17:00:00 -10,0 -11,1 4 2 10 6 W 992,8 50 0,0
15.01.2019 16:00:00 -10,2 -11,2 4 2 10 6 W 992,6 50 0,0
15.01.2019 15:00:00 -9,9 -11,1 5 3 9 5 W 992,4 50 0,0
15.01.2019 14:00:00 -10,3 -11,8 5 3 8 4 W 992,1 50 0,0
15.01.2019 13:00:00 -10,4 -11,7 3 2 8 5 WSW 992,1 50 0,0
15.01.2019 12:00:00 -9,9 -11,2 4 2 11 6 WSW 992,4 50 0,0
15.01.2019 11:00:00 -9,9 -11,2 4 2 11 6 SW 992,8 50 0,0
15.01.2019 10:00:00 -10,1 -11,1 4 2 11 6 S 993,0 50 0,0
15.01.2019 09:00:00 -10,0 -11,1 3 1 13 7 W 993,2 50 0,0
15.01.2019 08:00:00 -9,9 -10,8 4 2 17 9 WSW 993,5 50 0,0
15.01.2019 07:00:00 -9,6 -11,2 8 5 19 10 W 993,5 50 0,0
15.01.2019 06:00:00 -8,4 -10,5 10 5 23 13 W 993,7 50 0,0
15.01.2019 05:00:00 -6,8 -10,2 10 5 23 13 W 993,8 50 0,0
15.01.2019 04:00:00 -9,1 -11,6 8 5 25 13 W 993,9 50 0,0
15.01.2019 03:00:00 -7,3 -11,3 7 4 25 13 WNW 994,0 50 0,0
15.01.2019 02:00:00 -8,4 -11,9 9 5 21 12 W 993,3 50 0,0
15.01.2019 01:00:00 -8,3 -12,4 6 3 17 9 WNW 993,0 50 0,0
15.01.2019 00:00:00 -8,7 -12,5 4 2 23 12 WNW 992,6 46 0,0
14.01.2019 23:00:00 -7,5 -12,0 4 2 24 13 WNW 991,9 50 0,0
14.01.2019 22:00:00 -5,8 -11,5 11 6 35 19 NW 991,1 50 0,0
14.01.2019 21:00:00 -5,3 -11,4 13 7 43 23 NW 990,2 50 0,0
14.01.2019 20:00:00 -5,1 -11,2 18 10 43 23 NNW 989,2 50 0,0
14.01.2019 19:00:00 -5,8 -11,5 15 8 35 19 NNW 988,5 50 0,0
14.01.2019 18:00:00 -6,9 -12,8 12 6 44 24 NNW 987,7 50 0,0
14.01.2019 17:00:00 -6,9 -12,6 17 9 44 24 NNW 986,7 50 0,0
14.01.2019 16:00:00 -6,8 -11,9 17 9 36 20 NNW 985,8 50 0,0
14.01.2019 15:00:00 -6,4 -12,1 18 10 36 20 NW 984,6 50 0,0
14.01.2019 14:00:00 -6,5 -12,2 16 8 34 18 NNW 983,5 50 0,0
14.01.2019 13:00:00 -6,1 -12,1 14 8 32 18 NNW 982,5 50 0,0
14.01.2019 12:00:00 -6,6 -12,3 16 8 33 18 NNW 981,7 50 0,0
14.01.2019 11:00:00 -6,5 -12,4 18 10 33 18 NNW 980,7 50 0,0
14.01.2019 10:00:00 -9,2 -12,3 8 4 16 9 NW 979,8 50 0,0
14.01.2019 09:00:00 -8,6 -12,1 9 5 16 9 NW 979,0 50 0,0
14.01.2019 08:00:00 -9,3 -11,8 7 4 15 8 NNW 978,1 50 0,0
14.01.2019 07:00:00 -8,1 -10,5 9 5 14 8 NNW 976,8 50 0,0
14.01.2019 06:00:00 -9,1 -10,6 4 2 14 8 NNE 975,9 11 0,0
14.01.2019 05:00:00 -9,6 -11,1 5 3 16 9 WSW 975,9 50 0,0
14.01.2019 04:00:00 -9,7 -11,5 9 5 23 12 SW 976,8 50 0,0
14.01.2019 03:00:00 -9,2 -11,9 9 5 23 12 WNW 976,8 50 0,0
14.01.2019 02:00:00 -9,0 -11,5 11 6 19 10 W 976,8 50 0,0
14.01.2019 01:00:00 -9,4 -11,4 7 4 17 9 WNW 976,6 50 0,0
14.01.2019 00:00:00 -8,7 -11,7 8 4 21 11 NW 976,6 50 0,0
13.01.2019 23:00:00 -8,9 -11,9 11 6 21 11 W 976,0 50 0,0
13.01.2019 22:00:00 -8,6 -11,4 11 6 27 14 W 976,3 50 0,0
13.01.2019 21:00:00 -7,5 -10,7 8 4 31 17 WNW 976,1 50 0,0
13.01.2019 20:00:00 -6,2 -9,4 10 5 31 17 NW 975,5 50 0,0
13.01.2019 19:00:00 -5,7 -8,1 9 5 30 16 WNW 975,2 50 0,0
13.01.2019 18:00:00 -5,2 -7,3 16 8 30 16 WNW 974,8 50 0,0
13.01.2019 17:00:00 -4,7 -6,4 11 6 29 16 NW 974,3 50 0,0
13.01.2019 16:00:00 -4,2 -5,4 9 5 26 14 WNW 973,4 50 0,0
13.01.2019 15:00:00 -4,7 -5,4 9 5 14 8 W 972,5 43 0,3
13.01.2019 14:00:00 -4,9 -5,6 5 3 16 9 SW 971,6 2,1 0,1
13.01.2019 13:00:00 -4,9 -5,6 9 5 18 10 S 971,8 12 0,6
13.01.2019 12:00:00 -5,0 -5,7 7 4 18 10 S 972,9 2,7 0,2
13.01.2019 11:00:00 -5,0 -5,7 8 5 16 9 S 974,1 5 0,0
13.01.2019 10:00:00 -5,1 -5,8 6 3 14 7 S 975,7 45 -
13.01.2019 09:00:00 -5,1 -5,8 6 3 15 8 SSE 977,2 50 0,0
13.01.2019 08:00:00 -5,2 -5,9 6 4 15 8 SSE 978,8 7 0,1
13.01.2019 07:00:00 -5,5 -6,2 6 3 15 8 S 980,7 4,7 0,1
13.01.2019 06:00:00 -5,5 -6,2 6 3 11 6 SSE 982,2 50 0,0
13.01.2019 05:00:00 -5,9 -6,7 4 2 9 5 SSE 984,1 50 0,0
13.01.2019 04:00:00 -6,3 -7,1 4 2 7 4 SSE 986,0 50 0,0
13.01.2019 03:00:00 -6,8 -7,5 4 2 6 3 SSE 987,5 50 0,0
13.01.2019 02:00:00 -6,9 -7,7 2 1 6 4 WSW 988,7 14 0,0
13.01.2019 01:00:00 -6,6 -7,4 3 1 7 4 WSW 989,9 50 0,0
13.01.2019 00:00:00 -6,9 -7,7 4 2 7 4 WSW 991,2 50 0,0
12.01.2019 23:00:00 -5,8 -6,2 4 2 8 4 SSW 991,9 50 0,0
12.01.2019 22:00:00 -5,2 -5,9 3 2 10 5 WSW 992,6 29 0,0
12.01.2019 21:00:00 -4,4 -5,2 4 2 12 7 W 993,5 50 0,0
12.01.2019 20:00:00 -3,9 -5,0 6 4 12 7 W 994,0 9 0,0
12.01.2019 19:00:00 -4,6 -5,6 6 3 10 5 W 994,3 50 0,0
12.01.2019 18:00:00 -4,4 -5,6 4 2 13 7 W 994,5 50 0,0
12.01.2019 17:00:00 -4,0 -5,5 6 3 13 7 W 994,9 50 0,0
12.01.2019 16:00:00 -4,1 -5,6 5 3 18 10 W 995,2 50 0,0
12.01.2019 15:00:00 -4,1 -5,5 8 5 18 10 W 995,3 50 0,0
12.01.2019 14:00:00 -3,8 -5,3 8 4 18 10 WNW 995,4 50 0,0
12.01.2019 13:00:00 -3,3 -4,7 6 3 18 10 W 995,9 50 0,0
12.01.2019 12:00:00 -3,2 -4,5 10 5 18 10 W 996,2 50 0,0

tt = Température de l'air
td = dewpoint
ff = Vitesse du vent
fx = gusts
dd = Direction du vent
ppp = reduced air pressure
vv = visibility
rr = Quantités de précipitations

stations d'obs. à proximité